Time,TemperatureF,DewpointF,PressureIn,WindDirection,WindDirectionDegrees,WindSpeedMPH,WindSpeedGustMPH,Humidity,HourlyPrecipIn,Conditions,Clouds,dailyrainin,SoftwareType,DateUTC
2013-07-10 00:10:00,69.6,68.0,29.79,SE,128,2.0,-999.0,95,-99.99,,,0.00,weatherlink.com 1.10,2013-07-10 04:10:00,
2013-07-10 00:25:00,69.4,68.0,29.79,SE,141,6.0,-999.0,95,-99.99,,,0.00,weatherlink.com 1.10,2013-07-10 04:25:00,
2013-07-10 00:41:00,68.9,68.0,29.77,NE,52,0.0,-999.0,95,-99.99,,,0.00,weatherlink.com 1.10,2013-07-10 04:41:00,
2013-07-10 00:56:00,68.8,67.0,29.76,SE,127,1.0,-999.0,95,-99.99,,,0.01,weatherlink.com 1.10,2013-07-10 04:56:00,
2013-07-10 01:11:00,68.9,68.0,29.75,ESE,102,4.0,-999.0,96,-99.99,,,0.01,weatherlink.com 1.10,2013-07-10 05:11:00,
2013-07-10 01:26:00,68.9,68.0,29.74,SSE,151,7.0,-999.0,96,-99.99,,,0.01,weatherlink.com 1.10,2013-07-10 05:26:00,
2013-07-10 01:41:00,68.9,68.0,29.74,SE,130,3.0,-999.0,96,-99.99,,,0.01,weatherlink.com 1.10,2013-07-10 05:41:00,
2013-07-10 01:56:00,68.7,68.0,29.73,SSE,150,4.0,-999.0,96,-99.99,,,0.01,weatherlink.com 1.10,2013-07-10 05:56:00,
2013-07-10 02:11:00,68.6,68.0,29.72,SE,132,0.0,-999.0,97,-99.99,,,0.01,weatherlink.com 1.10,2013-07-10 06:11:00,
2013-07-10 02:26:00,68.5,68.0,29.71,SSE,152,4.0,-999.0,97,-99.99,,,0.02,weatherlink.com 1.10,2013-07-10 06:26:00,
2013-07-10 02:41:00,68.3,68.0,29.71,SSE,161,5.0,-999.0,97,-99.99,,,0.02,weatherlink.com 1.10,2013-07-10 06:41:00,
2013-07-10 02:56:00,68.2,67.0,29.70,SSE,165,4.0,-999.0,97,-99.99,,,0.02,weatherlink.com 1.10,2013-07-10 06:56:00,
2013-07-10 03:11:00,68.1,67.0,29.69,SSE,157,0.0,-999.0,97,-99.99,,,0.03,weatherlink.com 1.10,2013-07-10 07:11:00,
2013-07-10 03:26:00,68.1,67.0,29.68,SSE,159,2.0,-999.0,97,-99.99,,,0.03,weatherlink.com 1.10,2013-07-10 07:26:00,
2013-07-10 03:41:00,67.9,67.0,29.67,SSE,159,2.0,-999.0,97,-99.99,,,0.03,weatherlink.com 1.10,2013-07-10 07:41:00,
2013-07-10 03:56:00,67.9,67.0,29.66,SSW,192,2.0,-999.0,97,-99.99,,,0.03,weatherlink.com 1.10,2013-07-10 07:56:00,
2013-07-10 04:11:00,67.9,67.0,29.66,South,179,2.0,-999.0,97,-99.99,,,0.03,weatherlink.com 1.10,2013-07-10 08:11:00,
2013-07-10 04:26:00,68.1,67.0,29.65,South,176,4.0,-999.0,97,-99.99,,,0.03,weatherlink.com 1.10,2013-07-10 08:26:00,
2013-07-10 04:41:00,68.3,68.0,29.64,South,191,4.0,-999.0,97,-99.99,,,0.03,weatherlink.com 1.10,2013-07-10 08:41:00,
2013-07-10 04:56:00,68.6,68.0,29.64,SSW,213,4.0,-999.0,97,-99.99,,,0.03,weatherlink.com 1.10,2013-07-10 08:56:00,
2013-07-10 05:11:00,68.9,68.0,29.64,SW,229,9.0,-999.0,97,-99.99,,,0.04,weatherlink.com 1.10,2013-07-10 09:11:00,
2013-07-10 05:26:00,69.0,68.0,29.65,West,272,4.0,-999.0,97,-99.99,,,0.06,weatherlink.com 1.10,2013-07-10 09:26:00,
2013-07-10 05:41:00,68.8,68.0,29.65,West,260,5.0,-999.0,97,-99.99,,,0.06,weatherlink.com 1.10,2013-07-10 09:41:00,
2013-07-10 05:56:00,68.5,68.0,29.66,WNW,298,8.0,-999.0,97,-99.99,,,0.06,weatherlink.com 1.10,2013-07-10 09:56:00,
2013-07-10 06:11:00,67.9,67.0,29.67,West,265,15.0,-999.0,97,-99.99,,,0.07,weatherlink.com 1.10,2013-07-10 10:11:00,
2013-07-10 06:26:00,67.6,67.0,29.68,West,266,11.0,-999.0,96,-99.99,,,0.07,weatherlink.com 1.10,2013-07-10 10:26:00,
2013-07-10 06:41:00,67.3,66.0,29.68,NW,306,16.0,-999.0,96,-99.99,,,0.07,weatherlink.com 1.10,2013-07-10 10:41:00,
2013-07-10 06:56:00,65.9,65.0,29.70,NW,313,12.0,-999.0,95,-99.99,,,0.07,weatherlink.com 1.10,2013-07-10 10:56:00,
2013-07-10 07:12:00,64.3,63.0,29.71,NW,314,7.0,-999.0,94,-99.99,,,0.07,weatherlink.com 1.10,2013-07-10 11:12:00,
2013-07-10 07:27:00,62.4,61.0,29.72,NW,313,13.0,-999.0,95,-99.99,,,0.07,weatherlink.com 1.10,2013-07-10 11:27:00,
2013-07-10 07:42:00,61.8,60.0,29.73,WNW,300,11.0,-999.0,95,-99.99,,,0.07,weatherlink.com 1.10,2013-07-10 11:42:00,
2013-07-10 07:57:00,61.8,61.0,29.73,WNW,302,3.0,-999.0,96,-99.99,,,0.07,weatherlink.com 1.10,2013-07-10 11:57:00,
2013-07-10 08:12:00,61.8,61.0,29.73,WNW,287,6.0,-999.0,96,-99.99,,,0.07,weatherlink.com 1.10,2013-07-10 12:12:00,
2013-07-10 08:27:00,61.8,60.0,29.73,NW,317,4.0,-999.0,95,-99.99,,,0.07,weatherlink.com 1.10,2013-07-10 12:27:00,
2013-07-10 08:42:00,61.8,60.0,29.74,WNW,295,7.0,-999.0,95,-99.99,,,0.07,weatherlink.com 1.10,2013-07-10 12:42:00,
2013-07-10 08:57:00,61.4,60.0,29.74,West,263,10.0,-999.0,95,-99.99,,,0.07,weatherlink.com 1.10,2013-07-10 12:57:00,
2013-07-10 09:12:00,61.4,60.0,29.75,WNW,294,9.0,-999.0,95,-99.99,,,0.07,weatherlink.com 1.10,2013-07-10 13:12:00,
2013-07-10 09:27:00,61.3,60.0,29.75,WNW,297,5.0,-999.0,95,-99.99,,,0.07,weatherlink.com 1.10,2013-07-10 13:27:00,
2013-07-10 09:57:00,60.9,60.0,29.76,WNW,290,5.0,-999.0,95,-99.99,,,0.07,weatherlink.com 1.10,2013-07-10 13:57:00,
2013-07-10 10:12:00,60.9,60.0,29.76,NW,305,6.0,-999.0,95,-99.99,,,0.07,weatherlink.com 1.10,2013-07-10 14:12:00,
2013-07-10 10:27:00,61.5,60.0,29.76,WNW,300,7.0,-999.0,93,-99.99,,,0.07,weatherlink.com 1.10,2013-07-10 14:27:00,
2013-07-10 10:57:00,59.7,58.0,29.78,WNW,292,9.0,-999.0,95,-99.99,,,0.07,weatherlink.com 1.10,2013-07-10 14:57:00,
2013-07-10 11:12:00,60.5,58.0,29.79,NW,305,14.0,-999.0,92,-99.99,,,0.07,weatherlink.com 1.10,2013-07-10 15:12:00,
2013-07-10 11:27:00,60.6,58.0,29.79,West,260,8.0,-999.0,90,-99.99,,,0.07,weatherlink.com 1.10,2013-07-10 15:27:00,
2013-07-10 11:42:00,61.3,58.0,29.79,NW,306,5.0,-999.0,90,-99.99,,,0.07,weatherlink.com 1.10,2013-07-10 15:42:00,
2013-07-10 11:57:00,61.3,58.0,29.80,WNW,292,9.0,-999.0,90,-99.99,,,0.07,weatherlink.com 1.10,2013-07-10 15:57:00,
2013-07-10 12:12:00,60.8,58.0,29.80,WNW,301,11.0,-999.0,89,-99.99,,,0.07,weatherlink.com 1.10,2013-07-10 16:12:00,
2013-07-10 12:27:00,59.7,57.0,29.80,NW,309,2.0,-999.0,90,-99.99,,,0.07,weatherlink.com 1.10,2013-07-10 16:27:00,
2013-07-10 12:42:00,59.5,57.0,29.82,WNW,288,14.0,-999.0,91,-99.99,,,0.07,weatherlink.com 1.10,2013-07-10 16:42:00,
2013-07-10 12:57:00,60.0,57.0,29.82,WNW,302,9.0,-999.0,90,-99.99,,,0.07,weatherlink.com 1.10,2013-07-10 16:57:00,
2013-07-10 13:12:00,59.7,57.0,29.83,WNW,294,11.0,-999.0,90,-99.99,,,0.07,weatherlink.com 1.10,2013-07-10 17:12:00,
2013-07-10 13:27:00,59.7,57.0,29.83,WNW,291,10.0,-999.0,92,-99.99,,,0.07,weatherlink.com 1.10,2013-07-10 17:27:00,
2013-07-10 13:57:00,61.1,58.0,29.85,WNW,292,6.0,-999.0,88,-99.99,,,0.07,weatherlink.com 1.10,2013-07-10 17:57:00,
2013-07-10 14:12:00,61.5,58.0,29.86,WNW,295,12.0,-999.0,87,-99.99,,,0.07,weatherlink.com 1.10,2013-07-10 18:12:00,
2013-07-10 14:28:00,62.5,58.0,29.86,NNW,329,11.0,-999.0,86,-99.99,,,0.07,weatherlink.com 1.10,2013-07-10 18:28:00,
2013-07-10 14:42:00,63.0,59.0,29.86,WNW,299,11.0,-999.0,85,-99.99,,,0.07,weatherlink.com 1.10,2013-07-10 18:42:00,
2013-07-10 14:58:00,64.0,59.0,29.86,WNW,285,7.0,-999.0,84,-99.99,,,0.07,weatherlink.com 1.10,2013-07-10 18:58:00,
2013-07-10 15:12:00,63.5,58.0,29.87,West,271,6.0,-999.0,82,-99.99,,,0.07,weatherlink.com 1.10,2013-07-10 19:12:00,
2013-07-10 15:28:00,63.5,58.0,29.87,NW,323,16.0,-999.0,83,-99.99,,,0.07,weatherlink.com 1.10,2013-07-10 19:28:00,
2013-07-10 15:43:00,64.0,58.0,29.87,NW,304,9.0,-999.0,82,-99.99,,,0.07,weatherlink.com 1.10,2013-07-10 19:43:00,
2013-07-10 15:58:00,64.6,59.0,29.86,NW,315,6.0,-999.0,82,-99.99,,,0.07,weatherlink.com 1.10,2013-07-10 19:58:00,
2013-07-10 16:13:00,65.3,59.0,29.88,WNW,296,9.0,-999.0,80,-99.99,,,0.07,weatherlink.com 1.10,2013-07-10 20:13:00,
2013-07-10 16:43:00,65.2,59.0,29.88,WNW,285,15.0,-999.0,79,-99.99,,,0.07,weatherlink.com 1.10,2013-07-10 20:43:00,
2013-07-10 16:58:00,64.7,58.0,29.88,NW,314,8.0,-999.0,79,-99.99,,,0.07,weatherlink.com 1.10,2013-07-10 20:58:00,
2013-07-10 17:13:00,65.0,59.0,29.88,NW,318,11.0,-999.0,80,-99.99,,,0.07,weatherlink.com 1.10,2013-07-10 21:13:00,
2013-07-10 17:28:00,65.3,59.0,29.88,WNW,284,12.0,-999.0,80,-99.99,,,0.07,weatherlink.com 1.10,2013-07-10 21:28:00,
2013-07-10 17:43:00,64.3,58.0,29.87,NW,304,9.0,-999.0,79,-99.99,,,0.07,weatherlink.com 1.10,2013-07-10 21:43:00,
2013-07-10 18:13:00,64.7,57.0,29.89,WNW,300,11.0,-999.0,77,-99.99,,,0.07,weatherlink.com 1.10,2013-07-10 22:13:00,
2013-07-10 18:28:00,65.1,57.0,29.89,WNW,291,13.0,-999.0,75,-99.99,,,0.07,weatherlink.com 1.10,2013-07-10 22:28:00,
2013-07-10 18:43:00,65.0,57.0,29.90,NNW,345,10.0,-999.0,75,-99.99,,,0.07,weatherlink.com 1.10,2013-07-10 22:43:00,
2013-07-10 18:58:00,64.5,57.0,29.89,NW,311,6.0,-999.0,76,-99.99,,,0.07,weatherlink.com 1.10,2013-07-10 22:58:00,
2013-07-10 19:13:00,64.3,56.0,29.90,WNW,298,14.0,-999.0,75,-99.99,,,0.07,weatherlink.com 1.10,2013-07-10 23:13:00,
2013-07-10 19:28:00,63.5,55.0,29.91,NW,309,10.0,-999.0,75,-99.99,,,0.07,weatherlink.com 1.10,2013-07-10 23:28:00,
2013-07-10 19:43:00,63.7,56.0,29.91,NNW,330,6.0,-999.0,75,-99.99,,,0.07,weatherlink.com 1.10,2013-07-10 23:43:00,
2013-07-10 19:58:00,63.6,56.0,29.92,WNW,302,15.0,-999.0,77,-99.99,,,0.07,weatherlink.com 1.10,2013-07-10 23:58:00,
2013-07-10 20:13:00,63.3,56.0,29.92,NW,322,6.0,-999.0,78,-99.99,,,0.07,weatherlink.com 1.10,2013-07-11 00:13:00,
2013-07-10 20:28:00,62.9,56.0,29.93,NNW,336,5.0,-999.0,78,-99.99,,,0.07,weatherlink.com 1.10,2013-07-11 00:28:00,
2013-07-10 20:43:00,62.3,56.0,29.93,NW,325,3.0,-999.0,79,-99.99,,,0.07,weatherlink.com 1.10,2013-07-11 00:43:00,
2013-07-10 21:13:00,60.6,55.0,29.94,WNW,285,5.0,-999.0,82,-99.99,,,0.07,weatherlink.com 1.10,2013-07-11 01:13:00,
2013-07-10 21:28:00,60.1,55.0,29.95,NW,309,4.0,-999.0,83,-99.99,,,0.07,weatherlink.com 1.10,2013-07-11 01:28:00,
2013-07-10 21:43:00,59.6,55.0,29.95,WNW,300,5.0,-999.0,84,-99.99,,,0.07,weatherlink.com 1.10,2013-07-11 01:43:00,
2013-07-10 21:58:00,59.0,54.0,29.96,NW,313,5.0,-999.0,84,-99.99,,,0.07,weatherlink.com 1.10,2013-07-11 01:58:00,
2013-07-10 22:13:00,58.4,54.0,29.97,NNW,334,2.0,-999.0,85,-99.99,,,0.07,weatherlink.com 1.10,2013-07-11 02:13:00,
2013-07-10 22:28:00,58.1,54.0,29.97,NW,319,1.0,-999.0,86,-99.99,,,0.07,weatherlink.com 1.10,2013-07-11 02:28:00,
2013-07-10 22:43:00,57.4,54.0,29.98,NW,325,0.0,-999.0,87,-99.99,,,0.07,weatherlink.com 1.10,2013-07-11 02:43:00,
2013-07-10 22:58:00,56.2,52.0,29.98,NW,325,1.0,-999.0,87,-99.99,,,0.07,weatherlink.com 1.10,2013-07-11 02:58:00,
2013-07-10 23:13:00,55.3,52.0,29.98,NW,325,0.0,-999.0,89,-99.99,,,0.07,weatherlink.com 1.10,2013-07-11 03:13:00,
2013-07-10 23:28:00,55.1,53.0,29.98,WNW,283,2.0,-999.0,91,-99.99,,,0.07,weatherlink.com 1.10,2013-07-11 03:28:00,
2013-07-10 23:43:00,55.5,53.0,29.98,West,277,0.0,-999.0,90,-99.99,,,0.07,weatherlink.com 1.10,2013-07-11 03:43:00,
2013-07-10 23:58:00,53.9,51.0,29.99,NW,326,4.0,-999.0,91,-99.99,,,0.07,weatherlink.com 1.10,2013-07-11 03:58:00,